^^
Station Historical Data
 
Daily Summary for February 25, 2020 Units:  English    Metric   Both
« Previous Day
Next Day »
Daily Weekly Monthly Yearly Custom
  Current: High: Low: Average:
Temperature: 35.1 °F 35.7 °F 24.3 °F 29.3 °F
Dew Point: 20.1 °F 26.5 °F 16.1 °F 20.3 °F
Humidity: 54% 79% 54% 69%
Wind Speed: 5mph 12mph 0mph 2.5mph
Wind Gust: 12mph 20mph - -
WindNorth - - ENE
Pressure: 30.25 in 30.25 in 30.05 in -
Precipitation: 0 in      
Historical Graphs
 
 
Tabular Data for February 25, 2020
Time Temperature Dew Point Pressure Wind Wind Speed Wind Gust Humidity Rainfall Rate (Hourly) solar Conditions
00:00 31.1 °F 21.8 °F 30.05 in Calm   8 mph 68% 0 in 0.00 W/m2 CLR
00:05 30.9 °F 21.5 °F 30.05 in North 2 mph 5 mph 68% 0 in 0.00 W/m2 CLR
00:10 30.7 °F 21.4 °F 30.05 in North 2 mph 8 mph 68% 0 in 0.00 W/m2 CLR
00:15 30.6 °F 21.3 °F 30.05 in North 1 mph 7 mph 68% 0 in 0.00 W/m2 CLR
00:20 30.4 °F 21.1 °F 30.05 in North 2 mph 7 mph 68% 0 in 0.00 W/m2 CLR
00:25 30.4 °F 21.1 °F 30.06 in Calm   5 mph 68% 0 in 0.00 W/m2 CLR
00:30 30.2 °F 20.9 °F 30.06 in Calm   5 mph 68% 0 in 0.00 W/m2 CLR
00:35 30.1 °F 20.8 °F 30.06 in Calm   5 mph 68% 0 in 0.00 W/m2 CLR
00:40 29.8 °F 20.5 °F 30.06 in Calm   2 mph 68% 0 in 0.00 W/m2 CLR
00:45 29.4 °F 20.2 °F 30.06 in Calm     68% 0 in 0.00 W/m2 CLR
00:50 29.3 °F 20 °F 30.06 in Calm     68% 0 in 0.00 W/m2 CLR
00:55 29.1 °F 19.8 °F 30.06 in Calm   3 mph 68% 0 in 0.00 W/m2 CLR
01:00 28.8 °F 19.5 °F 30.06 in Calm     68% 0 in 0.00 W/m2 CLR
01:05 28.6 °F 19.4 °F 30.07 in Calm     68% 0 in 0.00 W/m2 CLR
01:10 28.4 °F 19.2 °F 30.07 in Calm     68% 0 in 0.00 W/m2 CLR
01:15 28.2 °F 19 °F 30.07 in Calm     68% 0 in 0.00 W/m2 CLR
01:20 27.9 °F 18.7 °F 30.07 in Calm     68% 0 in 0.00 W/m2 CLR
01:25 27.8 °F 18.6 °F 30.07 in Calm     68% 0 in 0.00 W/m2 CLR
01:30 27.6 °F 18.4 °F 30.07 in Calm     68% 0 in 0.00 W/m2 CLR
01:35 26.9 °F 17.7 °F 30.07 in Calm     68% 0 in 0.00 W/m2 CLR
01:40 26.4 °F 17.3 °F 30.08 in Calm     68% 0 in 0.00 W/m2 CLR
01:45 26.2 °F 17.1 °F 30.08 in Calm     68% 0 in 0.00 W/m2 CLR
01:50 25.9 °F 16.8 °F 30.07 in Calm     68% 0 in 0.00 W/m2 CLR
01:55 25.7 °F 16.6 °F 30.08 in Calm     68% 0 in 0.00 W/m2 CLR
02:00 25.5 °F 16.4 °F 30.08 in Calm     68% 0 in 0.00 W/m2 CLR
02:05 25.4 °F 17.9 °F 30.08 in Calm   2 mph 73% 0 in 0.00 W/m2 CLR
02:10 25.2 °F 17.8 °F 30.08 in Calm     73% 0 in 0.00 W/m2 CLR
02:15 25.2 °F 17.8 °F 30.08 in Calm     73% 0 in 0.00 W/m2 CLR
02:20 24.9 °F 17.5 °F 30.08 in Calm     73% 0 in 0.00 W/m2 CLR
02:25 24.9 °F 17.5 °F 30.08 in Calm     73% 0 in 0.00 W/m2 CLR
02:30 24.7 °F 17.3 °F 30.08 in Calm     73% 0 in 0.00 W/m2 CLR
02:35 24.6 °F 17.2 °F 30.08 in Calm     73% 0 in 0.00 W/m2 CLR
02:40 24.5 °F 17.1 °F 30.08 in Calm     73% 0 in 0.00 W/m2 CLR
02:45 24.3 °F 16.9 °F 30.08 in Calm     73% 0 in 0.00 W/m2 CLR
02:50 24.6 °F 17.2 °F 30.08 in Calm     73% 0 in 0.00 W/m2 CLR
02:55 24.9 °F 17.5 °F 30.08 in Calm     73% 0 in 0.00 W/m2 CLR
03:00 25 °F 17.6 °F 30.07 in Calm     73% 0 in 0.00 W/m2 CLR
03:05 25.2 °F 16.1 °F 30.07 in Calm     68% 0 in 0.00 W/m2 CLR
03:10 25.3 °F 16.2 °F 30.08 in Calm     68% 0 in 0.00 W/m2 CLR
03:15 25.5 °F 16.4 °F 30.08 in NNW 1 mph 7 mph 68% 0 in 0.00 W/m2 CLR
03:20 25.7 °F 16.6 °F 30.08 in Calm   4 mph 68% 0 in 0.00 W/m2 CLR
03:25 25.9 °F 16.8 °F 30.08 in Calm   5 mph 68% 0 in 0.00 W/m2 CLR
03:30 26.1 °F 17 °F 30.08 in Calm   6 mph 68% 0 in 0.00 W/m2 CLR
03:35 26.3 °F 17.2 °F 30.09 in Calm   3 mph 68% 0 in 0.00 W/m2 CLR
03:40 26.3 °F 17.2 °F 30.09 in Calm   1 mph 68% 0 in 0.00 W/m2 CLR
03:45 26.1 °F 17 °F 30.09 in Calm     68% 0 in 0.00 W/m2 CLR
03:50 26.1 °F 17 °F 30.09 in Calm   1 mph 68% 0 in 0.00 W/m2 CLR
03:55 26.1 °F 17 °F 30.09 in Calm     68% 0 in 0.00 W/m2 CLR
04:00 26.1 °F 17 °F 30.10 in Calm   3 mph 68% 0 in 0.00 W/m2 CLR
04:05 25.9 °F 18.4 °F 30.10 in Calm     73% 0 in 0.00 W/m2 CLR
04:10 25.8 °F 18.3 °F 30.10 in Calm     73% 0 in 0.00 W/m2 CLR
04:15 25.7 °F 18.3 °F 30.10 in Calm     73% 0 in 0.00 W/m2 CLR
04:20 25.6 °F 18.1 °F 30.10 in Calm     73% 0 in 0.00 W/m2 CLR
04:25 25.4 °F 17.9 °F 30.11 in Calm     73% 0 in 0.00 W/m2 CLR
04:30 25.3 °F 17.9 °F 30.10 in Calm     73% 0 in 0.00 W/m2 CLR
04:35 25.2 °F 17.7 °F 30.11 in Calm     73% 0 in 0.00 W/m2 CLR
04:40 24.9 °F 17.5 °F 30.11 in Calm     73% 0 in 0.00 W/m2 CLR
04:45 24.8 °F 17.3 °F 30.11 in Calm     73% 0 in 0.00 W/m2 CLR
04:50 24.7 °F 17.3 °F 30.11 in Calm     73% 0 in 0.00 W/m2 CLR
04:55 24.6 °F 17.2 °F 30.11 in Calm     73% 0 in 0.00 W/m2 CLR
05:00 24.7 °F 17.3 °F 30.12 in Calm     73% 0 in 0.00 W/m2 CLR
05:05 24.7 °F 17.3 °F 30.12 in Calm     73% 0 in 0.00 W/m2 CLR
05:10 24.8 °F 17.4 °F 30.12 in Calm     73% 0 in 0.00 W/m2 CLR
05:15 24.9 °F 17.4 °F 30.12 in Calm     73% 0 in 0.00 W/m2 CLR
05:20 24.9 °F 17.5 °F 30.12 in Calm     73% 0 in 0.00 W/m2 CLR
05:25 25 °F 17.5 °F 30.13 in Calm   2 mph 73% 0 in 0.00 W/m2 CLR
05:30 25 °F 17.6 °F 30.13 in Calm     73% 0 in 0.00 W/m2 CLR
05:35 25 °F 17.6 °F 30.13 in Calm   3 mph 73% 0 in 0.00 W/m2 CLR
05:40 25.2 °F 17.8 °F 30.14 in NNE 1 mph 4 mph 73% 0 in 0.00 W/m2 CLR
05:45 25.4 °F 17.9 °F 30.14 in Calm   4 mph 73% 0 in 0.00 W/m2 CLR
05:50 25.4 °F 17.9 °F 30.14 in Calm     73% 0 in 0.00 W/m2 CLR
05:55 25.4 °F 17.9 °F 30.15 in North 1 mph 7 mph 73% 0 in 0.00 W/m2 CLR
06:00 25.5 °F 18 °F 30.15 in Calm   3 mph 73% 0 in 0.00 W/m2 CLR
06:05 25.5 °F 18 °F 30.15 in Calm   5 mph 73% 0 in 0.00 W/m2 CLR
06:10 25.6 °F 18.1 °F 30.15 in Calm   3 mph 73% 0 in 0.00 W/m2 CLR
06:15 25.6 °F 18.2 °F 30.16 in North 1 mph 5 mph 73% 0 in 0.00 W/m2 CLR
06:20 25.8 °F 18.3 °F 30.16 in Calm   4 mph 73% 0 in 0.00 W/m2 CLR
06:25 26 °F 18.5 °F 30.16 in North 2 mph 6 mph 73% 0 in 0.00 W/m2 CLR
06:30 26.1 °F 18.6 °F 30.16 in Calm     73% 0 in 0.00 W/m2 CLR
06:35 26.1 °F 18.6 °F 30.16 in Calm     73% 0 in 0.00 W/m2 CLR
06:40 26 °F 18.6 °F 30.17 in Calm   3 mph 73% 0 in 0.00 W/m2 CLR
06:45 26.1 °F 18.6 °F 30.17 in Calm   7 mph 73% 0 in 0.00 W/m2 CLR
06:50 26.1 °F 18.6 °F 30.17 in Calm   1 mph 73% 0 in 0.00 W/m2 CLR
06:55 26.1 °F 18.6 °F 30.17 in Calm   5 mph 73% 0 in 0.00 W/m2 CLR
07:00 26.2 °F 18.7 °F 30.18 in North 1 mph 7 mph 73% 0 in 5.00 W/m2 CLR
07:05 26.2 °F 20.6 °F 30.18 in NNE 2 mph 5 mph 79% 0 in 9.00 W/m2 BKN
07:10 26.2 °F 20.6 °F 30.18 in NNE 1 mph 7 mph 79% 0 in 12.00 W/m2 BKN
07:15 26.2 °F 20.6 °F 30.18 in Calm   2 mph 79% 0 in 19.00 W/m2 BKN
07:20 26.2 °F 20.6 °F 30.18 in Calm   4 mph 79% 0 in 26.00 W/m2 BKN
07:25 26.3 °F 20.7 °F 30.19 in North 1 mph 4 mph 79% 0 in 35.00 W/m2 BKN
07:30 26.3 °F 20.7 °F 30.19 in North 1 mph 6 mph 79% 0 in 44.00 W/m2 BKN
07:35 26.4 °F 20.8 °F 30.19 in Calm   5 mph 79% 0 in 51.00 W/m2 BKN
07:40 26.5 °F 20.9 °F 30.19 in Calm   3 mph 79% 0 in 60.00 W/m2 BKN
07:45 26.6 °F 21 °F 30.20 in North 1 mph 3 mph 79% 0 in 69.00 W/m2 BKN
07:50 26.7 °F 21 °F 30.20 in North 1 mph 5 mph 79% 0 in 79.00 W/m2 BKN
07:55 26.7 °F 21 °F 30.20 in North 1 mph 7 mph 79% 0 in 88.00 W/m2 BKN
08:00 26.7 °F 21 °F 30.20 in North 1 mph 4 mph 79% 0 in 98.00 W/m2 BKN
08:05 26.8 °F 19.3 °F 30.20 in Calm   1 mph 73% 0 in 107.00 W/m2 BKN
08:10 26.9 °F 19.4 °F 30.20 in Calm   1 mph 73% 0 in 120.00 W/m2 BKN
08:15 27.2 °F 19.7 °F 30.20 in Calm   4 mph 73% 0 in 134.00 W/m2 BKN
08:20 27.4 °F 19.9 °F 30.21 in NNE 1 mph 5 mph 73% 0 in 139.00 W/m2 BKN
08:25 27.7 °F 20.1 °F 30.21 in NNE 1 mph 8 mph 73% 0 in 153.00 W/m2 BKN
08:30 28 °F 20.5 °F 30.21 in NNE 1 mph 6 mph 73% 0 in 156.00 W/m2 BKN
08:35 28.3 °F 20.7 °F 30.22 in NNE 2 mph 5 mph 73% 0 in 163.00 W/m2 BKN
08:40 28.4 °F 20.8 °F 30.22 in NNE 2 mph 6 mph 73% 0 in 169.00 W/m2 BKN
08:45 28.7 °F 21.1 °F 30.22 in NNE 2 mph 7 mph 73% 0 in 167.00 W/m2 BKN
08:50 28.8 °F 21.2 °F 30.22 in NNE 2 mph 7 mph 73% 0 in 174.00 W/m2 BKN
08:55 28.9 °F 21.3 °F 30.22 in North 3 mph 8 mph 73% 0 in 174.00 W/m2 BKN
09:00 28.9 °F 21.3 °F 30.22 in NNE 1 mph 8 mph 73% 0 in 188.00 W/m2 BKN
09:05 29.2 °F 23.5 °F 30.23 in North 2 mph 9 mph 79% 0 in 188.00 W/m2 CLR
09:10 29.4 °F 23.7 °F 30.23 in North 1 mph 9 mph 79% 0 in 193.00 W/m2 CLR
09:15 29.6 °F 23.9 °F 30.23 in North 2 mph 10 mph 79% 0 in 204.00 W/m2 CLR
09:20 29.6 °F 23.9 °F 30.23 in Calm   4 mph 79% 0 in 213.00 W/m2 CLR
09:25 29.6 °F 23.9 °F 30.23 in North 3 mph 8 mph 79% 0 in 216.00 W/m2 CLR
09:30 29.5 °F 23.8 °F 30.23 in North 3 mph 8 mph 79% 0 in 239.00 W/m2 CLR
09:35 29.5 °F 23.8 °F 30.23 in North 5 mph 8 mph 79% 0 in 237.00 W/m2 CLR
09:40 29.6 °F 23.9 °F 30.23 in North 2 mph 10 mph 79% 0 in 253.00 W/m2 CLR
09:45 29.6 °F 23.9 °F 30.23 in North 3 mph 7 mph 79% 0 in 258.00 W/m2 CLR
09:50 29.7 °F 24 °F 30.23 in North 2 mph 5 mph 79% 0 in 267.00 W/m2 CLR
09:55 30 °F 24.3 °F 30.23 in North 2 mph 5 mph 79% 0 in 265.00 W/m2 CLR
10:00 30.2 °F 24.5 °F 30.23 in North 3 mph 8 mph 79% 0 in 267.00 W/m2 CLR
10:05 30.3 °F 23 °F 30.23 in North 5 mph 10 mph 74% 0 in 279.00 W/m2 CLR
10:10 30.5 °F 23.2 °F 30.23 in North 3 mph 9 mph 74% 0 in 295.00 W/m2 CLR
10:15 30.7 °F 23.4 °F 30.24 in North 3 mph 8 mph 74% 0 in 313.00 W/m2 CLR
10:20 30.8 °F 23.5 °F 30.24 in North 5 mph 12 mph 74% 0 in 327.00 W/m2 CLR
10:25 31 °F 23.7 °F 30.24 in North 2 mph 8 mph 74% 0 in 336.00 W/m2 CLR
10:30 31.1 °F 23.8 °F 30.24 in North 6 mph 12 mph 74% 0 in 360.00 W/m2 CLR
10:35 31.4 °F 24 °F 30.24 in North 2 mph 10 mph 74% 0 in 357.00 W/m2 CLR
10:40 31.6 °F 24.3 °F 30.24 in North 5 mph 13 mph 74% 0 in 350.00 W/m2 CLR
10:45 31.6 °F 24.3 °F 30.24 in North 5 mph 12 mph 74% 0 in 353.00 W/m2 CLR
10:50 31.7 °F 24.4 °F 30.24 in North 7 mph 12 mph 74% 0 in 374.00 W/m2 CLR
10:55 31.9 °F 24.6 °F 30.24 in NNE 8 mph 13 mph 74% 0 in 371.00 W/m2 CLR
11:00 32 °F 24.6 °F 30.24 in North 6 mph 13 mph 74% 0 in 376.00 W/m2 CLR
11:05 32.1 °F 24.7 °F 30.24 in North 2 mph 13 mph 74% 0 in 397.00 W/m2 CLR
11:10 32.4 °F 25 °F 30.24 in North 6 mph 14 mph 74% 0 in 396.00 W/m2 CLR
11:15 32.4 °F 25 °F 30.24 in North 5 mph 12 mph 74% 0 in 388.00 W/m2 CLR
11:20 32.6 °F 25.3 °F 30.24 in North 5 mph 12 mph 74% 0 in 397.00 W/m2 CLR
11:25 32.8 °F 25.5 °F 30.24 in North 9 mph 15 mph 74% 0 in 418.00 W/m2 CLR
11:30 33.1 °F 25.7 °F 30.24 in NNE 8 mph 16 mph 74% 0 in 422.00 W/m2 CLR
11:35 33.2 °F 25.8 °F 30.24 in North 6 mph 12 mph 74% 0 in 422.00 W/m2 CLR
11:40 33.2 °F 25.8 °F 30.24 in NNE 8 mph 14 mph 74% 0 in 420.00 W/m2 CLR
11:45 33.2 °F 25.8 °F 30.24 in NNE 8 mph 16 mph 74% 0 in 448.00 W/m2 CLR
11:50 33.4 °F 26 °F 30.24 in North 9 mph 13 mph 74% 0 in 473.00 W/m2 CLR
11:55 33.6 °F 26.2 °F 30.24 in NNE 9 mph 15 mph 74% 0 in 504.00 W/m2 CLR
12:00 33.9 °F 26.5 °F 30.24 in North 7 mph 16 mph 74% 0 in 480.00 W/m2 CLR
12:05 33.9 °F 22.6 °F 30.24 in North 8 mph 15 mph 63% 0 in 480.00 W/m2 CLR
12:10 34 °F 22.7 °F 30.24 in North 10 mph 17 mph 63% 0 in 499.00 W/m2 CLR
12:15 34.1 °F 22.8 °F 30.24 in NNE 8 mph 15 mph 63% 0 in 485.00 W/m2 CLR
12:20 33.9 °F 22.6 °F 30.25 in NNE 7 mph 17 mph 63% 0 in 475.00 W/m2 CLR
12:25 33.9 °F 22.6 °F 30.25 in NNE 8 mph 20 mph 63% 0 in 485.00 W/m2 CLR
12:30 34.1 °F 22.8 °F 30.25 in NNE 5 mph 16 mph 63% 0 in 503.00 W/m2 CLR
12:35 34.1 °F 22.8 °F 30.25 in NNE 9 mph 15 mph 63% 0 in 534.00 W/m2 CLR
12:40 34.4 °F 23.1 °F 30.25 in NNE 8 mph 16 mph 63% 0 in 536.00 W/m2 CLR
12:45 34.6 °F 23.3 °F 30.25 in NNE 5 mph 16 mph 63% 0 in 534.00 W/m2 CLR
12:50 34.7 °F 23.4 °F 30.25 in North 9 mph 15 mph 63% 0 in 526.00 W/m2 CLR
12:55 34.8 °F 23.5 °F 30.25 in NNE 6 mph 13 mph 63% 0 in 515.00 W/m2 CLR
13:00 35 °F 23.7 °F 30.25 in NNE 12 mph 16 mph 63% 0 in 520.00 W/m2 CLR
13:05 34.8 °F 19.8 °F 30.25 in NNE 7 mph 18 mph 54% 0 in 489.00 W/m2 CLR
13:10 34.7 °F 19.8 °F 30.25 in NNE 8 mph 17 mph 54% 0 in 478.00 W/m2 CLR
13:15 34.7 °F 19.7 °F 30.25 in NNE 7 mph 15 mph 54% 0 in 482.00 W/m2 CLR
13:20 34.8 °F 19.8 °F 30.25 in NNE 7 mph 13 mph 54% 0 in 406.00 W/m2 CLR
13:25 34.9 °F 19.9 °F 30.25 in NNE 8 mph 13 mph 54% 0 in 475.00 W/m2 CLR
13:30 34.9 °F 19.9 °F 30.25 in NNE 7 mph 15 mph 54% 0 in 489.00 W/m2 CLR
13:35 35.2 °F 20.2 °F 30.25 in NNE 8 mph 12 mph 54% 0 in 504.00 W/m2 CLR
13:40 35.2 °F 20.2 °F 30.25 in NNE 7 mph 17 mph 54% 0 in 510.00 W/m2 CLR
13:45 35.3 °F 20.3 °F 30.25 in NE 5 mph 14 mph 54% 0 in 454.00 W/m2 CLR
13:50 35.2 °F 20.2 °F 30.24 in NE 9 mph 15 mph 54% 0 in 480.00 W/m2 CLR
13:55 35 °F 20 °F 30.24 in NE 7 mph 12 mph 54% 0 in 504.00 W/m2 CLR
14:00 35.5 °F 20.5 °F 30.24 in NE 7 mph 14 mph 54% 0 in 482.00 W/m2 CLR
14:05 35.6 °F 20.6 °F 30.24 in NE 8 mph 14 mph 54% 0 in 475.00 W/m2 CLR
14:10 35.5 °F 20.4 °F 30.24 in NE 7 mph 13 mph 54% 0 in 483.00 W/m2 CLR
14:15 35.5 °F 20.4 °F 30.24 in NE 2 mph 16 mph 54% 0 in 436.00 W/m2 CLR
14:20 35.5 °F 20.4 °F 30.24 in NNE 6 mph 12 mph 54% 0 in 385.00 W/m2 CLR
14:25 35.2 °F 20.2 °F 30.24 in NE 6 mph 14 mph 54% 0 in 346.00 W/m2 CLR
14:30 35.3 °F 20.3 °F 30.24 in NNE 2 mph 9 mph 54% 0 in 329.00 W/m2 CLR
14:35 35.1 °F 20.1 °F 30.24 in NE 3 mph 9 mph 54% 0 in 318.00 W/m2 CLR
14:40 35.2 °F 20.2 °F 30.25 in NE 1 mph 9 mph 54% 0 in 330.00 W/m2 CLR
14:45 35.3 °F 20.3 °F 30.25 in NNE 1 mph 8 mph 54% 0 in 334.00 W/m2 CLR
14:50 35.2 °F 20.2 °F 30.25 in NNE 6 mph 13 mph 54% 0 in 350.00 W/m2 CLR
14:55 35.4 °F 20.4 °F 30.24 in NNE 3 mph 12 mph 54% 0 in 327.00 W/m2 CLR
15:00 35.3 °F 20.3 °F 30.25 in NNE 1 mph 9 mph 54% 0 in 308.00 W/m2 CLR
15:05 35.7 °F 20.7 °F 30.24 in NNE 3 mph 10 mph 54% 0 in 306.00 W/m2 CLR
15:10 35.4 °F 20.4 °F 30.25 in North 8 mph 12 mph 54% 0 in 295.00 W/m2 CLR
15:15 35.2 °F 20.2 °F 30.24 in NNW 6 mph 14 mph 54% 0 in 264.00 W/m2 CLR
15:20 35.1 °F 20.1 °F 30.24 in North 5 mph 12 mph 54% 0 in 250.00 W/m2 CLR
15:25 35.1 °F 20.1 °F 30.25 in North 5 mph 12 mph 54% 0 in 248.00 W/m2 CLR
Zumbrota Weather